Flag for Japan Weather past 2 weeks in Fukuoka, Japan

Now
72 °F

Sprinkles. Partly sunny.


Feels Like: 69 °F
Forecast: 71 / 79 °F
Wind: 10 mph from Northwest

Location: Fukuoka Airport

Current Time: Jul 1, 2015 at 2:54:26 PM

Latest Report: Jul 1, 2015 at 2:00 PM


Visibility: N/A

Pressure: 29.47 "Hg

Humidity: 88%

Dew point: 68 °F

Location of FukuokaLocation

Historic Weather in Fukuoka — Graph

°F

Fukuoka temperature yesterday

Maximum temperature yesterday: 77 °F (at 9:30 AM)
Minimum temperature yesterday: 72 °F (at 2:30 PM)
Average temperature yesterday: 74 °F

Past Weeks' High & Low Weather Summary

 TemperatureHumidityPressure
High86 °F (Jun 29, 3:00 PM)94% (Jun 17, 10:00 PM)29.89 "Hg (Jun 17, 10:00 PM)
Low63 °F (Jun 29, 5:30 AM)45% (Jun 29, 5:00 PM)29.24 "Hg (Jul 1, 3:00 AM)
Average73 °F78%29.68 "Hg
* Reported Jun 16 1:00 PM — Jul 1 1:30 PM, Fukuoka, Weather by CustomWeather, © 2015

Note: Actual official high and low records may vary slightly from our data, if they occured in-between our weather recording intervals... More about our weather records

Advertising

Fukuoka weather history for previous 24 hours

 ConditionsComfort  
Time TempWeatherWind HumidityBarometerVisibility
1:30 PM
Wed, Jul 1
73 °FPartly sunny.8 mph83%29.45 "HgN/A
12:30 PM72 °FPartly sunny.6 mph88%29.45 "HgN/A
12:00 PM72 °FSprinkles. Broken clouds.5 mph88%29.45 "Hg4 mi
11:30 AM70 °FSprinkles. Broken clouds.3 mph94%29.45 "Hg1 mi
11:00 AM72 °FSprinkles. Broken clouds.7 mph83%29.45 "Hg5 mi
10:30 AM72 °FSprinkles. Broken clouds.5 mph88%29.45 "HgN/A
10:00 AM72 °FPartly sunny.6 mph88%29.45 "HgN/A
9:30 AM72 °FPartly sunny.7 mph83%29.42 "HgN/A
9:00 AM72 °FSprinkles. Broken clouds.5 mph88%29.42 "HgN/A
8:30 AM70 °FBroken clouds.7 mph94%29.42 "HgN/A
8:00 AM70 °FSprinkles. Partly sunny.8 mph94%29.39 "HgN/A
7:30 AM70 °FSprinkles. Broken clouds.10 mph94%29.39 "HgN/A
7:00 AM70 °FSprinkles. Broken clouds.8 mph94%29.36 "HgN/A
6:30 AM72 °FSprinkles. Fog.9 mph88%29.36 "Hg3 mi
6:00 AM73 °FSprinkles. Fog.15 mph89%29.33 "Hg2 mi
5:30 AM75 °FSprinkles. Fog.12 mph89%29.30 "Hg2 mi
5:00 AM75 °FSprinkles. Fog.9 mph89%29.27 "Hg3 mi
4:30 AM77 °FPartly cloudy.8 mph83%29.27 "HgN/A
4:00 AM79 °FPartly cloudy.9 mph79%29.27 "HgN/A
3:30 AM77 °FSprinkles. Partly cloudy.12 mph89%29.27 "HgN/A
3:00 AM77 °FSprinkles. Partly cloudy.15 mph89%29.24 "Hg4 mi
2:00 AM75 °FLots of rain. Partly cloudy.8 mph94%29.27 "Hg1 mi
1:30 AM75 °FRain showers. Partly cloudy.5 mph94%29.27 "Hg3 mi
1:00 AM75 °FLots of rain. Partly cloudy.10 mph94%29.27 "Hg1 mi
12:00 AM75 °FSprinkles. Partly cloudy.16 mph89%29.30 "HgN/A
11:30 PM
Tue, Jun 30
75 °FLight rain. Partly cloudy.20 mph89%29.33 "HgN/A
10:30 PM73 °FLight rain. Partly cloudy.16 mph94%29.36 "HgN/A
10:00 PM73 °FLight rain. Partly cloudy.16 mph89%29.36 "HgN/A
9:30 PM75 °FLight rain. Partly cloudy.14 mph83%29.36 "HgN/A
9:00 PM75 °FSprinkles. Passing clouds.12 mph89%29.36 "HgN/A
8:30 PM73 °FSprinkles. Partly cloudy.8 mph94%29.42 "Hg6 mi
8:00 PM72 °FLots of rain. Passing clouds.12 mph94%29.42 "Hg1 mi
7:48 PM73 °FLots of rain. Partly cloudy.13 mph89%29.42 "Hg2 mi
7:30 PM73 °FSprinkles. Broken clouds.16 mph89%29.39 "HgN/A
7:00 PM73 °FLight rain. Broken clouds.18 mph89%29.39 "HgN/A
6:30 PM73 °FLight rain. Broken clouds.23 mph89%29.39 "HgN/A
6:00 PM73 °FLight rain. Partly sunny.20 mph89%29.39 "HgN/A
5:30 PM72 °FSprinkles. Broken clouds.14 mph94%29.42 "Hg6 mi
5:00 PM73 °FLight rain. Partly sunny.12 mph89%29.45 "Hg5 mi
4:30 PM73 °FLight rain. Broken clouds.9 mph94%29.45 "Hg5 mi
4:00 PM73 °FLight rain. Partly sunny.7 mph89%29.45 "Hg4 mi
3:30 PM72 °FLight rain. Fog.8 mph94%29.45 "Hg3 mi
3:03 PM72 °FLots of rain. Fog.1 mph94%29.47 "Hg1 mi
3:00 PM72 °FRain showers. Fog.2 mph94%29.50 "Hg1 mi
2:46 PM72 °FRain showers. Fog.3 mph94%29.47 "Hg2 mi
2:30 PM72 °FRain showers. Fog.2 mph94%29.50 "Hg2 mi
2:02 PM73 °FRain showers. Fog.3 mph83%29.50 "Hg2 mi
2:00 PM73 °FRain showers. Fog.3 mph83%29.50 "Hg2 mi
Weather by CustomWeather, © 2015

See weather overviewHow to use our weather pages